Year,Month,Day,Hour,Minute,Value (Times are PST for temperature in C)
2017,02,13,00,00,1.60
2017,02,13,00,01,1.60
2017,02,13,00,02,1.60
2017,02,13,00,03,1.60
2017,02,13,00,04,1.60
2017,02,13,00,05,1.60
2017,02,13,00,06,1.60
2017,02,13,00,07,1.60
2017,02,13,00,08,1.60
2017,02,13,00,09,1.70
2017,02,13,00,10,1.70
2017,02,13,00,11,1.80
2017,02,13,00,12,1.80
2017,02,13,00,13,1.80
2017,02,13,00,14,1.80
2017,02,13,00,15,1.80
2017,02,13,00,16,1.90
2017,02,13,00,17,1.90
2017,02,13,00,18,2.00
2017,02,13,00,19,2.00
2017,02,13,00,20,2.00
2017,02,13,00,21,2.10
2017,02,13,00,22,2.10
2017,02,13,00,23,2.10
2017,02,13,00,24,2.20
2017,02,13,00,25,2.20
2017,02,13,00,26,2.20
2017,02,13,00,27,2.20
2017,02,13,00,28,2.20
2017,02,13,00,29,2.20
2017,02,13,00,30,2.20
2017,02,13,00,31,2.20
2017,02,13,00,32,2.20
2017,02,13,00,33,2.20
2017,02,13,00,34,2.20
2017,02,13,00,35,2.20
2017,02,13,00,36,2.20
2017,02,13,00,37,2.20
2017,02,13,00,38,2.20
2017,02,13,00,39,2.20
2017,02,13,00,40,2.20
2017,02,13,00,41,2.20
2017,02,13,00,42,2.20
2017,02,13,00,43,2.20
2017,02,13,00,44,2.20
2017,02,13,00,45,2.20
2017,02,13,00,46,2.20
2017,02,13,00,47,2.20
2017,02,13,00,48,2.10
2017,02,13,00,49,2.10
2017,02,13,00,50,2.10
2017,02,13,00,51,2.10
2017,02,13,00,52,2.00
2017,02,13,00,53,2.00
2017,02,13,00,54,1.90
2017,02,13,00,55,1.90
2017,02,13,00,56,1.90
2017,02,13,00,57,1.80
2017,02,13,00,58,1.80
2017,02,13,00,59,1.70
2017,02,13,01,00,1.70
2017,02,13,01,01,1.60
2017,02,13,01,02,1.60
2017,02,13,01,03,1.60
2017,02,13,01,04,1.60
2017,02,13,01,05,1.60
2017,02,13,01,06,1.60
2017,02,13,01,07,1.60
2017,02,13,01,08,1.50
2017,02,13,01,09,1.60
2017,02,13,01,10,1.60
2017,02,13,01,11,1.60
2017,02,13,01,12,1.60
2017,02,13,01,13,1.60
2017,02,13,01,14,1.60
2017,02,13,01,15,1.60
2017,02,13,01,16,1.60
2017,02,13,01,17,1.60
2017,02,13,01,18,1.60
2017,02,13,01,19,1.60
2017,02,13,01,20,1.70
2017,02,13,01,21,1.70
2017,02,13,01,22,1.70
2017,02,13,01,23,1.80
2017,02,13,01,24,1.80
2017,02,13,01,25,1.80
2017,02,13,01,26,1.80
2017,02,13,01,27,1.80
2017,02,13,01,28,1.80
2017,02,13,01,29,1.80
2017,02,13,01,30,1.80
2017,02,13,01,31,1.80
2017,02,13,01,32,1.80
2017,02,13,01,33,1.80
2017,02,13,01,34,1.90
2017,02,13,01,35,1.90
2017,02,13,01,36,1.90
2017,02,13,01,37,1.90
2017,02,13,01,38,1.90
2017,02,13,01,39,1.90
2017,02,13,01,40,2.00
2017,02,13,01,41,2.00
2017,02,13,01,42,2.00
2017,02,13,01,43,2.00
2017,02,13,01,44,2.00
2017,02,13,01,45,1.90
2017,02,13,01,46,1.90
2017,02,13,01,47,1.90
2017,02,13,01,48,1.90
2017,02,13,01,49,1.90
2017,02,13,01,50,1.90
2017,02,13,01,51,1.80
2017,02,13,01,52,1.80
2017,02,13,01,53,1.80
2017,02,13,01,54,1.80
2017,02,13,01,55,1.80
2017,02,13,01,56,1.80
2017,02,13,01,57,1.80
2017,02,13,01,58,1.80
2017,02,13,01,59,1.80
2017,02,13,02,00,1.80
2017,02,13,02,01,1.80
2017,02,13,02,02,1.70
2017,02,13,02,03,1.70
2017,02,13,02,04,1.70
2017,02,13,02,05,1.70
2017,02,13,02,06,1.70
2017,02,13,02,07,1.70
2017,02,13,02,08,1.80
2017,02,13,02,09,1.80
2017,02,13,02,10,1.80
2017,02,13,02,11,1.80
2017,02,13,02,12,1.80
2017,02,13,02,13,1.80
2017,02,13,02,14,1.80
2017,02,13,02,15,1.80
2017,02,13,02,16,1.80
2017,02,13,02,17,1.80
2017,02,13,02,18,1.70
2017,02,13,02,19,1.70
2017,02,13,02,20,1.60
2017,02,13,02,21,1.60
2017,02,13,02,22,1.50
2017,02,13,02,23,1.50
2017,02,13,02,24,1.50
2017,02,13,02,25,1.40
2017,02,13,02,26,1.40
2017,02,13,02,27,1.30
2017,02,13,02,28,1.30
2017,02,13,02,29,1.30
2017,02,13,02,30,1.20
2017,02,13,02,31,1.20
2017,02,13,02,32,1.20
2017,02,13,02,33,1.20
2017,02,13,02,34,1.10
2017,02,13,02,35,1.10
2017,02,13,02,36,1.10
2017,02,13,02,37,1.10
2017,02,13,02,38,1.10
2017,02,13,02,39,1.10
2017,02,13,02,40,1.10
2017,02,13,02,41,1.00
2017,02,13,02,42,1.00
2017,02,13,02,43,1.00
2017,02,13,02,44,1.00
2017,02,13,02,45,1.00
2017,02,13,02,46,0.90
2017,02,13,02,47,0.90
2017,02,13,02,48,0.90
2017,02,13,02,49,0.90
2017,02,13,02,50,0.90
2017,02,13,02,51,0.90
2017,02,13,02,52,1.00
2017,02,13,02,53,1.00
2017,02,13,02,54,1.00
2017,02,13,02,55,1.00
2017,02,13,02,56,1.00
2017,02,13,02,57,1.10
2017,02,13,02,58,1.10
2017,02,13,02,59,1.00
2017,02,13,03,00,1.00
2017,02,13,03,01,1.00
2017,02,13,03,02,0.90
2017,02,13,03,03,0.90
2017,02,13,03,04,0.90
2017,02,13,03,05,0.90
2017,02,13,03,06,0.90
2017,02,13,03,07,0.90
2017,02,13,03,08,0.80
2017,02,13,03,09,0.80
2017,02,13,03,10,0.80
2017,02,13,03,11,0.80
2017,02,13,03,12,0.80
2017,02,13,03,13,0.80
2017,02,13,03,14,0.80
2017,02,13,03,15,0.80
2017,02,13,03,16,0.70
2017,02,13,03,17,0.70
2017,02,13,03,18,0.70
2017,02,13,03,19,0.70
2017,02,13,03,20,0.70
2017,02,13,03,21,0.70
2017,02,13,03,22,0.70
2017,02,13,03,23,0.80
2017,02,13,03,24,0.80
2017,02,13,03,25,0.80
2017,02,13,03,26,0.80
2017,02,13,03,27,0.80
2017,02,13,03,28,0.80
2017,02,13,03,29,0.70
2017,02,13,03,30,0.70
2017,02,13,03,31,0.70
2017,02,13,03,32,0.70
2017,02,13,03,33,0.70
2017,02,13,03,34,0.70
2017,02,13,03,35,0.70
2017,02,13,03,36,0.70
2017,02,13,03,37,0.80
2017,02,13,03,38,0.80
2017,02,13,03,39,0.80
2017,02,13,03,40,0.80
2017,02,13,03,41,0.80
2017,02,13,03,42,0.80
2017,02,13,03,43,0.80
2017,02,13,03,44,0.90
2017,02,13,03,45,0.90
2017,02,13,03,46,0.90
2017,02,13,03,47,0.90
2017,02,13,03,48,0.90
2017,02,13,03,49,0.90
2017,02,13,03,50,0.80
2017,02,13,03,51,0.80
2017,02,13,03,52,0.80
2017,02,13,03,53,0.80
2017,02,13,03,54,0.80
2017,02,13,03,55,0.80
2017,02,13,03,56,0.80
2017,02,13,03,57,0.80
2017,02,13,03,58,0.80
2017,02,13,03,59,0.70
2017,02,13,04,00,0.70
2017,02,13,04,01,0.70
2017,02,13,04,02,0.70
2017,02,13,04,03,0.70
2017,02,13,04,04,0.70
2017,02,13,04,05,0.70
2017,02,13,04,06,0.70
2017,02,13,04,07,0.70
2017,02,13,04,08,0.70
2017,02,13,04,09,0.70
2017,02,13,04,10,0.70
2017,02,13,04,11,0.70
2017,02,13,04,12,0.80
2017,02,13,04,13,0.80
2017,02,13,04,14,0.80
2017,02,13,04,15,0.90
2017,02,13,04,16,1.00
2017,02,13,04,17,1.00
2017,02,13,04,18,1.10
2017,02,13,04,19,1.20
2017,02,13,04,20,1.20
2017,02,13,04,21,1.20
2017,02,13,04,22,1.30
2017,02,13,04,23,1.30
2017,02,13,04,24,1.30
2017,02,13,04,25,1.30
2017,02,13,04,26,1.30
2017,02,13,04,27,1.20
2017,02,13,04,28,1.20
2017,02,13,04,29,1.20
2017,02,13,04,30,1.20
2017,02,13,04,31,1.20
2017,02,13,04,32,1.20
2017,02,13,04,33,1.20
2017,02,13,04,34,1.20
2017,02,13,04,35,1.20
2017,02,13,04,36,1.20
2017,02,13,04,37,1.10
2017,02,13,04,38,1.10
2017,02,13,04,39,1.10
2017,02,13,04,40,1.10
2017,02,13,04,41,1.00
2017,02,13,04,42,1.00
2017,02,13,04,43,1.00
2017,02,13,04,44,0.90
2017,02,13,04,45,0.90
2017,02,13,04,46,0.80
2017,02,13,04,47,0.80
2017,02,13,04,48,0.80
2017,02,13,04,49,0.80
2017,02,13,04,50,0.80
2017,02,13,04,51,0.80
2017,02,13,04,52,0.80
2017,02,13,04,53,0.80
2017,02,13,04,54,0.80
2017,02,13,04,55,0.80
2017,02,13,04,56,0.80
2017,02,13,04,57,0.80
2017,02,13,04,58,0.80
2017,02,13,04,59,0.80
2017,02,13,05,00,0.80
2017,02,13,05,01,0.80
2017,02,13,05,02,0.80
2017,02,13,05,03,0.80
2017,02,13,05,04,0.80
2017,02,13,05,05,0.80
2017,02,13,05,06,0.80
2017,02,13,05,07,0.90
2017,02,13,05,08,0.90
2017,02,13,05,09,0.90
2017,02,13,05,10,1.00
2017,02,13,05,11,1.00
2017,02,13,05,12,1.00
2017,02,13,05,13,1.00
2017,02,13,05,14,1.00
2017,02,13,05,15,0.90
2017,02,13,05,16,0.90
2017,02,13,05,17,0.90
2017,02,13,05,18,0.90
2017,02,13,05,19,0.90
2017,02,13,05,20,0.90
2017,02,13,05,21,0.90
2017,02,13,05,22,0.80
2017,02,13,05,23,0.80
2017,02,13,05,24,0.80
2017,02,13,05,25,0.70
2017,02,13,05,26,0.70
2017,02,13,05,27,0.60
2017,02,13,05,28,0.60
2017,02,13,05,29,0.60
2017,02,13,05,30,0.50
2017,02,13,05,31,0.50
2017,02,13,05,32,0.50
2017,02,13,05,33,0.40
2017,02,13,05,34,0.40
2017,02,13,05,35,0.40
2017,02,13,05,36,0.40
2017,02,13,05,37,0.40
2017,02,13,05,38,0.40
2017,02,13,05,39,0.40
2017,02,13,05,40,0.40
2017,02,13,05,41,0.40
2017,02,13,05,42,0.40
2017,02,13,05,43,0.40
2017,02,13,05,44,0.40
2017,02,13,05,45,0.40
2017,02,13,05,46,0.40
2017,02,13,05,47,0.40
2017,02,13,05,48,0.40
2017,02,13,05,49,0.40
2017,02,13,05,50,0.50
2017,02,13,05,51,0.50
2017,02,13,05,52,0.50
2017,02,13,05,53,0.50
2017,02,13,05,54,0.50
2017,02,13,05,55,0.40
2017,02,13,05,56,0.40
2017,02,13,05,57,0.40
2017,02,13,05,58,0.40
2017,02,13,05,59,0.40
2017,02,13,06,00,0.40
2017,02,13,06,01,0.40
2017,02,13,06,02,0.40
2017,02,13,06,03,0.40
2017,02,13,06,04,0.40
2017,02,13,06,05,0.40
2017,02,13,06,06,0.40
2017,02,13,06,07,0.40
2017,02,13,06,08,0.40
2017,02,13,06,09,0.40
2017,02,13,06,10,0.40
2017,02,13,06,11,0.40
2017,02,13,06,12,0.40
2017,02,13,06,13,0.40
2017,02,13,06,14,0.40
2017,02,13,06,15,0.40
2017,02,13,06,16,0.40
2017,02,13,06,17,0.40
2017,02,13,06,18,0.40
2017,02,13,06,19,0.40
2017,02,13,06,20,0.30
2017,02,13,06,21,0.40
2017,02,13,06,22,0.40
2017,02,13,06,23,0.40
2017,02,13,06,24,0.40
2017,02,13,06,25,0.40
2017,02,13,06,26,0.40
2017,02,13,06,27,0.40
2017,02,13,06,28,0.40
2017,02,13,06,29,0.40
2017,02,13,06,30,0.40
2017,02,13,06,31,0.40
2017,02,13,06,32,0.40
2017,02,13,06,33,0.40
2017,02,13,06,34,0.30
2017,02,13,06,35,0.30
2017,02,13,06,36,0.30
2017,02,13,06,37,0.30
2017,02,13,06,38,0.20
2017,02,13,06,39,0.20
2017,02,13,06,40,0.20
2017,02,13,06,41,0.20
2017,02,13,06,42,0.30
2017,02,13,06,43,0.30
2017,02,13,06,44,0.40
2017,02,13,06,45,0.40
2017,02,13,06,46,0.50
2017,02,13,06,47,0.60
2017,02,13,06,48,0.60
2017,02,13,06,49,0.70
2017,02,13,06,50,0.60
2017,02,13,06,51,0.60
2017,02,13,06,52,0.60
2017,02,13,06,53,0.50
2017,02,13,06,54,0.50
2017,02,13,06,55,0.50
2017,02,13,06,56,0.40
2017,02,13,06,57,0.40
2017,02,13,06,58,0.40
2017,02,13,06,59,0.30
2017,02,13,07,00,0.20
2017,02,13,07,01,0.20
2017,02,13,07,02,0.10
2017,02,13,07,03,0.10
2017,02,13,07,04,0.10
2017,02,13,07,05,0.10
2017,02,13,07,06,0.10
2017,02,13,07,07,0.10
2017,02,13,07,08,0.10
2017,02,13,07,09,0.10
2017,02,13,07,10,0.10
2017,02,13,07,11,0.10
2017,02,13,07,12,0.20
2017,02,13,07,13,0.20
2017,02,13,07,14,0.20
2017,02,13,07,15,0.20
2017,02,13,07,16,0.20
2017,02,13,07,17,0.20
2017,02,13,07,18,0.20
2017,02,13,07,19,0.30
2017,02,13,07,20,0.30
2017,02,13,07,21,0.30
2017,02,13,07,22,0.30
2017,02,13,07,23,0.30
2017,02,13,07,24,0.30
2017,02,13,07,25,0.30
2017,02,13,07,26,0.30
2017,02,13,07,27,0.20
2017,02,13,07,28,0.20
2017,02,13,07,29,0.20
2017,02,13,07,30,0.20
2017,02,13,07,31,0.20
2017,02,13,07,32,0.20
2017,02,13,07,33,0.30
2017,02,13,07,34,0.30
2017,02,13,07,35,0.30
2017,02,13,07,36,0.30
2017,02,13,07,37,0.30
2017,02,13,07,38,0.30
2017,02,13,07,39,0.30
2017,02,13,07,40,0.30
2017,02,13,07,41,0.30
2017,02,13,07,42,0.40
2017,02,13,07,43,0.40
2017,02,13,07,44,0.40
2017,02,13,07,45,0.40
2017,02,13,07,46,0.40
2017,02,13,07,47,0.40
2017,02,13,07,48,0.40
2017,02,13,07,49,0.50
2017,02,13,07,50,0.50
2017,02,13,07,51,0.50
2017,02,13,07,52,0.50
2017,02,13,07,53,0.50
2017,02,13,07,54,0.50
2017,02,13,07,55,0.50
2017,02,13,07,56,0.50
2017,02,13,07,57,0.60
2017,02,13,07,58,0.60
2017,02,13,07,59,0.60
2017,02,13,08,00,0.60
2017,02,13,08,01,0.70
2017,02,13,08,02,0.70
2017,02,13,08,03,0.80
2017,02,13,08,04,0.80
2017,02,13,08,05,0.80
2017,02,13,08,06,0.80
2017,02,13,08,07,0.80
2017,02,13,08,08,0.80
2017,02,13,08,09,0.90
2017,02,13,08,10,0.90
2017,02,13,08,11,1.00
2017,02,13,08,12,1.00
2017,02,13,08,13,1.00
2017,02,13,08,14,1.00
2017,02,13,08,15,1.00
2017,02,13,08,16,1.00
2017,02,13,08,17,1.00
2017,02,13,08,18,1.00
2017,02,13,08,19,1.00
2017,02,13,08,20,1.00
2017,02,13,08,21,1.00
2017,02,13,08,22,1.00
2017,02,13,08,23,1.00
2017,02,13,08,24,1.00
2017,02,13,08,25,1.00
2017,02,13,08,26,1.10
2017,02,13,08,27,1.10
2017,02,13,08,28,1.10
2017,02,13,08,29,1.20
2017,02,13,08,30,1.30
2017,02,13,08,31,1.30
2017,02,13,08,32,1.30
2017,02,13,08,33,1.40
2017,02,13,08,34,1.40
2017,02,13,08,35,1.40
2017,02,13,08,36,1.50
2017,02,13,08,37,1.50
2017,02,13,08,38,1.60
2017,02,13,08,39,1.60
2017,02,13,08,40,1.70
2017,02,13,08,41,1.70
2017,02,13,08,42,1.80
2017,02,13,08,43,1.80
2017,02,13,08,44,1.80
2017,02,13,08,45,1.80
2017,02,13,08,46,1.80
2017,02,13,08,47,1.90
2017,02,13,08,48,2.00
2017,02,13,08,49,2.00
2017,02,13,08,50,2.00
2017,02,13,08,51,2.10
2017,02,13,08,52,2.20
2017,02,13,08,53,2.20
2017,02,13,08,54,2.20
2017,02,13,08,55,2.30
2017,02,13,08,56,2.30
2017,02,13,08,57,2.40
2017,02,13,08,58,2.40
2017,02,13,08,59,2.50
2017,02,13,09,00,2.50
2017,02,13,09,01,2.60
2017,02,13,09,02,2.60
2017,02,13,09,03,2.70
2017,02,13,09,04,2.70
2017,02,13,09,05,2.70
2017,02,13,09,06,2.70
2017,02,13,09,07,2.80
2017,02,13,09,08,2.80
2017,02,13,09,09,2.80
2017,02,13,09,10,2.90
2017,02,13,09,11,2.90
2017,02,13,09,12,2.90
2017,02,13,09,13,3.00
2017,02,13,09,14,3.10
2017,02,13,09,15,3.10
2017,02,13,09,16,3.10
2017,02,13,09,17,3.10
2017,02,13,09,18,3.20
2017,02,13,09,19,3.20
2017,02,13,09,20,3.20
2017,02,13,09,21,3.30
2017,02,13,09,22,3.30
2017,02,13,09,23,3.30
2017,02,13,09,24,3.30
2017,02,13,09,25,3.40
2017,02,13,09,26,3.40
2017,02,13,09,27,3.50
2017,02,13,09,28,3.50
2017,02,13,09,29,3.60
2017,02,13,09,30,3.60
2017,02,13,09,31,3.70
2017,02,13,09,32,3.80
2017,02,13,09,33,3.80
2017,02,13,09,34,3.80
2017,02,13,09,35,3.80
2017,02,13,09,36,3.90
2017,02,13,09,37,3.90
2017,02,13,09,38,4.00
2017,02,13,09,39,4.00
2017,02,13,09,40,4.00
2017,02,13,09,41,4.10
2017,02,13,09,42,4.10
2017,02,13,09,43,4.20
2017,02,13,09,44,4.20
2017,02,13,09,45,4.20
2017,02,13,09,46,4.20
2017,02,13,09,47,4.20
2017,02,13,09,48,4.30
2017,02,13,09,49,4.30
2017,02,13,09,50,4.40
2017,02,13,09,51,4.40
2017,02,13,09,52,4.50
2017,02,13,09,53,4.50
2017,02,13,09,54,4.50
2017,02,13,09,55,4.60
2017,02,13,09,56,4.60
2017,02,13,09,57,4.60
2017,02,13,09,58,4.70
2017,02,13,09,59,4.70
2017,02,13,10,00,4.80
2017,02,13,10,01,4.80
2017,02,13,10,02,4.90
2017,02,13,10,03,4.90
2017,02,13,10,04,4.90
2017,02,13,10,05,5.00
2017,02,13,10,06,5.10
2017,02,13,10,07,5.10
2017,02,13,10,08,5.20
2017,02,13,10,09,5.30
2017,02,13,10,10,5.30
2017,02,13,10,11,5.40
2017,02,13,10,12,5.40
2017,02,13,10,13,5.50
2017,02,13,10,14,5.50
2017,02,13,10,15,5.50
2017,02,13,10,16,5.60
2017,02,13,10,17,5.60
2017,02,13,10,18,5.70
2017,02,13,10,19,5.70
2017,02,13,10,20,5.70
2017,02,13,10,21,5.80
2017,02,13,10,22,5.80
2017,02,13,10,23,5.90
2017,02,13,10,24,6.00
2017,02,13,10,25,6.00
2017,02,13,10,26,6.00
2017,02,13,10,27,6.10
2017,02,13,10,28,6.20
2017,02,13,10,29,6.20
2017,02,13,10,30,6.20
2017,02,13,10,31,6.30
2017,02,13,10,32,6.30
2017,02,13,10,33,6.30
2017,02,13,10,34,6.40
2017,02,13,10,35,6.40
2017,02,13,10,36,6.50
2017,02,13,10,37,6.60
2017,02,13,10,38,6.60
2017,02,13,10,39,6.60
2017,02,13,10,40,6.60
2017,02,13,10,41,6.60
2017,02,13,10,42,6.60
2017,02,13,10,43,6.70
2017,02,13,10,44,6.80
2017,02,13,10,45,6.80
2017,02,13,10,46,6.80
2017,02,13,10,47,6.90
2017,02,13,10,48,7.00
2017,02,13,10,49,7.00
2017,02,13,10,50,7.00
2017,02,13,10,51,7.10
2017,02,13,10,52,7.20
2017,02,13,10,53,7.30
2017,02,13,10,54,7.30
2017,02,13,10,55,7.40
2017,02,13,10,56,7.50
2017,02,13,10,57,7.50
2017,02,13,10,58,7.50
2017,02,13,10,59,7.40
2017,02,13,11,00,7.30
2017,02,13,11,01,7.20
2017,02,13,11,02,7.20
2017,02,13,11,03,7.10
2017,02,13,11,04,7.10
2017,02,13,11,05,7.10
2017,02,13,11,06,7.10
2017,02,13,11,07,7.20
2017,02,13,11,08,7.20
2017,02,13,11,09,7.20
2017,02,13,11,10,7.30
2017,02,13,11,11,7.30
2017,02,13,11,12,7.30
2017,02,13,11,13,7.40
2017,02,13,11,14,7.40
2017,02,13,11,15,7.50
2017,02,13,11,16,7.50
2017,02,13,11,17,7.50
2017,02,13,11,18,7.50
2017,02,13,11,19,7.60
2017,02,13,11,20,7.60
2017,02,13,11,21,7.60
2017,02,13,11,22,7.70
2017,02,13,11,23,7.70
2017,02,13,11,24,7.70
2017,02,13,11,25,7.60
2017,02,13,11,26,7.60
2017,02,13,11,27,7.60
2017,02,13,11,28,7.60
2017,02,13,11,29,7.60
2017,02,13,11,30,7.60
2017,02,13,11,31,7.70
2017,02,13,11,32,7.70
2017,02,13,11,33,7.70
2017,02,13,11,34,7.70
2017,02,13,11,35,7.70
2017,02,13,11,36,7.80
2017,02,13,11,37,7.80
2017,02,13,11,38,7.80
2017,02,13,11,39,7.80
2017,02,13,11,40,7.80
2017,02,13,11,41,7.80
2017,02,13,11,42,7.70
2017,02,13,11,43,7.70
2017,02,13,11,44,7.70
2017,02,13,11,45,7.60
2017,02,13,11,46,7.60
2017,02,13,11,47,7.60
2017,02,13,11,48,7.60
2017,02,13,11,49,7.60
2017,02,13,11,50,7.60
2017,02,13,11,51,7.60
2017,02,13,11,52,7.60
2017,02,13,11,53,7.70
2017,02,13,11,54,7.70
2017,02,13,11,55,7.70
2017,02,13,11,56,7.80
2017,02,13,11,57,7.70
2017,02,13,11,58,7.70
2017,02,13,11,59,7.80
2017,02,13,12,00,7.80
2017,02,13,12,01,7.80
2017,02,13,12,02,7.80
2017,02,13,12,03,7.80
2017,02,13,12,04,7.80
2017,02,13,12,05,7.80
2017,02,13,12,06,7.80
2017,02,13,12,07,7.80
2017,02,13,12,08,7.90
2017,02,13,12,09,7.90
2017,02,13,12,10,7.90
2017,02,13,12,11,8.00
2017,02,13,12,12,8.00
2017,02,13,12,13,8.00
2017,02,13,12,14,8.00
2017,02,13,12,15,8.00
2017,02,13,12,16,8.00
2017,02,13,12,17,8.00
2017,02,13,12,18,8.00
2017,02,13,12,19,8.00
2017,02,13,12,20,8.00
2017,02,13,12,21,8.00
2017,02,13,12,22,8.10
2017,02,13,12,23,8.10
2017,02,13,12,24,8.10
2017,02,13,12,25,8.10
2017,02,13,12,26,8.20
2017,02,13,12,27,8.20
2017,02,13,12,28,8.20
2017,02,13,12,29,8.20
2017,02,13,12,30,8.30
2017,02,13,12,31,8.30
2017,02,13,12,32,8.30
2017,02,13,12,33,8.30
2017,02,13,12,34,8.40
2017,02,13,12,35,8.40
2017,02,13,12,36,8.40
2017,02,13,12,37,8.40
2017,02,13,12,38,8.40
2017,02,13,12,39,8.50
2017,02,13,12,40,8.50
2017,02,13,12,41,8.50
2017,02,13,12,42,8.50
2017,02,13,12,43,8.60
2017,02,13,12,44,8.60
2017,02,13,12,45,8.60
2017,02,13,12,46,8.60
2017,02,13,12,47,8.60
2017,02,13,12,48,8.60
2017,02,13,12,49,8.70
2017,02,13,12,50,8.70
2017,02,13,12,51,8.70
2017,02,13,12,52,8.70
2017,02,13,12,53,8.70
2017,02,13,12,54,8.70
2017,02,13,12,55,8.70
2017,02,13,12,56,8.70
2017,02,13,12,57,8.70
2017,02,13,12,58,8.70
2017,02,13,12,59,8.70
2017,02,13,13,00,8.70
2017,02,13,13,01,8.80
2017,02,13,13,02,8.80
2017,02,13,13,03,8.80
2017,02,13,13,04,8.90
2017,02,13,13,05,8.90
2017,02,13,13,06,8.90
2017,02,13,13,07,9.00
2017,02,13,13,08,9.00
2017,02,13,13,09,9.00
2017,02,13,13,10,9.00
2017,02,13,13,11,9.00
2017,02,13,13,12,9.00
2017,02,13,13,13,9.00
2017,02,13,13,14,9.10
2017,02,13,13,15,9.10
2017,02,13,13,16,9.10
2017,02,13,13,17,9.10
2017,02,13,13,18,9.10
2017,02,13,13,19,9.20
2017,02,13,13,20,9.20
2017,02,13,13,21,9.20
2017,02,13,13,22,9.20
2017,02,13,13,23,9.20
2017,02,13,13,24,9.30
2017,02,13,13,25,9.30
2017,02,13,13,26,9.30
2017,02,13,13,27,9.40
2017,02,13,13,28,9.40
2017,02,13,13,29,9.50
2017,02,13,13,30,9.50
2017,02,13,13,31,9.50
2017,02,13,13,32,9.50
2017,02,13,13,33,9.50
2017,02,13,13,34,9.50
2017,02,13,13,35,9.60
2017,02,13,13,36,9.60
2017,02,13,13,37,9.60
2017,02,13,13,38,9.60
2017,02,13,13,39,9.70
2017,02,13,13,40,9.70
2017,02,13,13,41,9.70
2017,02,13,13,42,9.70
2017,02,13,13,43,9.70
2017,02,13,13,44,9.80
2017,02,13,13,45,9.80
2017,02,13,13,46,9.80
2017,02,13,13,47,9.90
2017,02,13,13,48,9.90
2017,02,13,13,49,9.90
2017,02,13,13,50,9.90
2017,02,13,13,51,9.90
2017,02,13,13,52,9.90
2017,02,13,13,53,10.00
2017,02,13,13,54,10.10
2017,02,13,13,55,10.10
2017,02,13,13,56,10.10
2017,02,13,13,57,10.10
2017,02,13,13,58,10.20
2017,02,13,13,59,10.20
2017,02,13,14,00,10.20
2017,02,13,14,01,10.30
2017,02,13,14,02,10.30
2017,02,13,14,03,10.40
2017,02,13,14,04,10.40
2017,02,13,14,05,10.40
2017,02,13,14,06,10.40
2017,02,13,14,07,10.40
2017,02,13,14,08,10.40
2017,02,13,14,09,10.40
2017,02,13,14,10,10.40
2017,02,13,14,11,10.40
2017,02,13,14,12,10.40
2017,02,13,14,13,10.40
2017,02,13,14,14,10.40
2017,02,13,14,15,10.40
2017,02,13,14,16,10.40
2017,02,13,14,17,10.40
2017,02,13,14,18,10.40
2017,02,13,14,19,10.40
2017,02,13,14,20,10.30
2017,02,13,14,21,10.30
2017,02,13,14,22,10.30
2017,02,13,14,23,10.20
2017,02,13,14,24,10.20
2017,02,13,14,25,10.20
2017,02,13,14,26,10.20
2017,02,13,14,27,10.20
2017,02,13,14,28,10.20
2017,02,13,14,29,10.20
2017,02,13,14,30,10.20
2017,02,13,14,31,10.20
2017,02,13,14,32,10.20
2017,02,13,14,33,10.20
2017,02,13,14,34,10.20
2017,02,13,14,35,10.20
2017,02,13,14,36,10.20
2017,02,13,14,37,10.20
2017,02,13,14,38,10.20
2017,02,13,14,39,10.20
2017,02,13,14,40,10.10
2017,02,13,14,41,10.10
2017,02,13,14,42,10.10
2017,02,13,14,43,10.10
2017,02,13,14,44,10.10
2017,02,13,14,45,10.10
2017,02,13,14,46,10.10
2017,02,13,14,47,10.10
2017,02,13,14,48,10.10
2017,02,13,14,49,10.10
2017,02,13,14,50,10.10
2017,02,13,14,51,10.10
2017,02,13,14,52,10.10
2017,02,13,14,53,10.10
2017,02,13,14,54,10.10
2017,02,13,14,55,10.10
2017,02,13,14,56,10.10
2017,02,13,14,57,10.10
2017,02,13,14,58,10.10
2017,02,13,14,59,10.10
2017,02,13,15,00,10.10
2017,02,13,15,01,10.10
2017,02,13,15,02,10.10
2017,02,13,15,03,10.20
2017,02,13,15,04,10.20
2017,02,13,15,05,10.20
2017,02,13,15,06,10.30
2017,02,13,15,07,10.30
2017,02,13,15,08,10.30
2017,02,13,15,09,10.40
2017,02,13,15,10,10.40
2017,02,13,15,11,10.40
2017,02,13,15,12,10.40
2017,02,13,15,13,10.40
2017,02,13,15,14,10.40
2017,02,13,15,15,10.40
2017,02,13,15,16,10.40
2017,02,13,15,17,10.40
2017,02,13,15,18,10.40
2017,02,13,15,19,10.40
2017,02,13,15,20,10.40
2017,02,13,15,21,10.40
2017,02,13,15,22,10.40
2017,02,13,15,23,10.50
2017,02,13,15,24,10.60
2017,02,13,15,25,10.50
2017,02,13,15,26,10.40
2017,02,13,15,27,10.40
2017,02,13,15,28,10.40
2017,02,13,15,29,10.40
2017,02,13,15,30,10.40
2017,02,13,15,31,10.40
2017,02,13,15,32,10.40
2017,02,13,15,33,10.40
2017,02,13,15,34,10.40
2017,02,13,15,35,10.40
2017,02,13,15,36,10.40
2017,02,13,15,37,10.30
2017,02,13,15,38,10.30
2017,02,13,15,39,10.30
2017,02,13,15,40,10.30
2017,02,13,15,41,10.30
2017,02,13,15,42,10.30
2017,02,13,15,43,10.30
2017,02,13,15,44,10.30
2017,02,13,15,45,10.30
2017,02,13,15,46,10.30
2017,02,13,15,47,10.30
2017,02,13,15,48,10.30
2017,02,13,15,49,10.20
2017,02,13,15,50,10.20
2017,02,13,15,51,10.20
2017,02,13,15,52,10.20
2017,02,13,15,53,10.10
2017,02,13,15,54,10.10
2017,02,13,15,55,10.10
2017,02,13,15,56,10.10
2017,02,13,15,57,10.10
2017,02,13,15,58,10.10
2017,02,13,15,59,10.10
2017,02,13,16,00,10.10
2017,02,13,16,01,10.10
2017,02,13,16,02,10.10
2017,02,13,16,03,10.10
2017,02,13,16,04,10.10
2017,02,13,16,05,10.00
2017,02,13,16,06,9.90
2017,02,13,16,07,9.90
2017,02,13,16,08,9.90
2017,02,13,16,09,9.90
2017,02,13,16,10,9.90
2017,02,13,16,11,9.90
2017,02,13,16,12,9.90
2017,02,13,16,13,10.00
2017,02,13,16,14,10.10
2017,02,13,16,15,10.10
2017,02,13,16,16,10.10
2017,02,13,16,17,10.10
2017,02,13,16,18,10.10
2017,02,13,16,19,10.10
2017,02,13,16,20,10.20
2017,02,13,16,21,10.20
2017,02,13,16,22,10.20
2017,02,13,16,23,10.20
2017,02,13,16,24,10.30
2017,02,13,16,25,10.30
2017,02,13,16,26,10.30
2017,02,13,16,27,10.30
2017,02,13,16,28,10.40
2017,02,13,16,29,10.40
2017,02,13,16,30,10.40
2017,02,13,16,31,10.40
2017,02,13,16,32,10.40
2017,02,13,16,33,10.40
2017,02,13,16,34,10.50
2017,02,13,16,35,10.60
2017,02,13,16,36,10.60
2017,02,13,16,37,10.60
2017,02,13,16,38,10.60
2017,02,13,16,39,10.60
2017,02,13,16,40,10.60
2017,02,13,16,41,10.60
2017,02,13,16,42,10.60
2017,02,13,16,43,10.60
2017,02,13,16,44,10.60
2017,02,13,16,45,10.60
2017,02,13,16,46,10.60
2017,02,13,16,47,10.60
2017,02,13,16,48,10.70
2017,02,13,16,49,10.70
2017,02,13,16,50,10.80
2017,02,13,16,51,10.80
2017,02,13,16,52,10.90
2017,02,13,16,53,10.90
2017,02,13,16,54,10.90
2017,02,13,16,55,10.90
2017,02,13,16,56,10.80
2017,02,13,16,57,10.80
2017,02,13,16,58,10.70
2017,02,13,16,59,10.70
2017,02,13,17,00,10.60
2017,02,13,17,01,10.60
2017,02,13,17,02,10.60
2017,02,13,17,03,10.50
2017,02,13,17,04,10.40
2017,02,13,17,05,10.40
2017,02,13,17,06,10.40
2017,02,13,17,07,10.40
2017,02,13,17,08,10.40
2017,02,13,17,09,10.30
2017,02,13,17,10,10.30
2017,02,13,17,11,10.20
2017,02,13,17,12,10.20
2017,02,13,17,13,10.10
2017,02,13,17,14,10.10
2017,02,13,17,15,10.10
2017,02,13,17,16,10.00
2017,02,13,17,17,9.90
2017,02,13,17,18,9.90
2017,02,13,17,19,9.80
2017,02,13,17,20,9.70
2017,02,13,17,21,9.70
2017,02,13,17,22,9.60
2017,02,13,17,23,9.50
2017,02,13,17,24,9.50
2017,02,13,17,25,9.40
2017,02,13,17,26,9.30
2017,02,13,17,27,9.30
2017,02,13,17,28,9.20
2017,02,13,17,29,9.10
2017,02,13,17,30,9.00
2017,02,13,17,31,8.90
2017,02,13,17,32,8.70
2017,02,13,17,33,8.60
2017,02,13,17,34,8.50
2017,02,13,17,35,8.40
2017,02,13,17,36,8.30
2017,02,13,17,37,8.20
2017,02,13,17,38,8.10
2017,02,13,17,39,8.00
2017,02,13,17,40,8.00
2017,02,13,17,41,7.90
2017,02,13,17,42,7.90
2017,02,13,17,43,7.80
2017,02,13,17,44,7.70
2017,02,13,17,45,7.60
2017,02,13,17,46,7.50
2017,02,13,17,47,7.40
2017,02,13,17,48,7.30
2017,02,13,17,49,7.30
2017,02,13,17,50,7.20
2017,02,13,17,51,7.10
2017,02,13,17,52,7.00
2017,02,13,17,53,6.90
2017,02,13,17,54,6.90
2017,02,13,17,55,6.80
2017,02,13,17,56,6.80
2017,02,13,17,57,6.70